Location: Manchester NH
(43.0000°N, 71.5000°W)
Time: 18:09:18
(UTC-04:00)

Envisat - Visible Passes

Search period start: 17 October 2017 00:00
Search period end: 27 October 2017 00:00
Orbit: 764 x 766 km, 98.2° (Epoch: 17 October)

Date Brightness Start Highest point End Pass type
(mag) Time Alt. Az. Time Alt. Az. Time Alt. Az.
17 Oct 3.3 20:09:18 48° NE 20:09:18 48° NE 20:13:24 10° N visible
17 Oct 5.6 21:49:31 16° WNW 21:49:31 16° WNW 21:51:18 10° NW visible
18 Oct 4.0 19:32:19 26° ENE 19:32:19 26° ENE 19:36:08 10° N visible
18 Oct 4.7 21:12:32 30° NW 21:12:32 30° NW 21:15:34 10° NNW visible
19 Oct 4.7 18:55:20 13° ENE 18:55:42 13° ENE 18:57:58 10° NNE visible
19 Oct 3.7 20:35:33 46° NNW 20:35:33 46° NNW 20:39:06 10° NNW visible
20 Oct 3.7 19:58:34 37° NE 19:58:34 37° NE 20:02:10 10° N visible
20 Oct 5.5 21:38:47 18° WNW 21:38:47 18° WNW 21:40:36 10° NW visible
21 Oct 4.3 19:21:35 21° NE 19:21:35 21° NE 19:24:45 10° NNE visible
21 Oct 4.6 21:01:48 30° NW 21:01:48 30° NW 21:04:35 10° NNW visible
22 Oct 4.9 18:44:36 10° ENE 18:44:46 10° ENE 18:45:36 10° NE visible
22 Oct 3.9 20:24:49 39° N 20:24:49 39° N 20:27:58 10° N visible
23 Oct 4.0 19:47:50 29° NE 19:47:50 29° NE 19:50:56 10° N visible
23 Oct 5.4 21:28:03 19° NW 21:28:03 19° NW 21:29:47 10° NW visible
24 Oct 4.6 19:10:50 17° NE 19:10:50 17° NE 19:13:16 10° NNE visible
24 Oct 4.6 20:51:03 29° NNW 20:51:03 29° NNW 20:53:33 10° NNW visible
25 Oct 4.2 20:14:04 31° N 20:14:04 31° N 20:16:49 10° N visible
25 Oct 6.0 21:54:17 11° NW 21:54:17 11° NW 21:54:29 10° NW visible
26 Oct 4.3 19:37:05 23° NNE 19:37:05 23° NNE 19:39:37 10° N visible
26 Oct 5.3 21:17:17 19° NW 21:17:17 19° NW 21:18:53 10° NNW visible
